K5KVN-2 Weather Reports


time (UTC)temp
C
wind
direction
speed
KPH
gust
KPH
rain 1hr
cm
rain 24hr
cm
rain mn
cm
humidity
%
barometer
mb
20260508085030 8 169 0.0 0.0 0.00 0.00 0.00 86 1013.9
20260508084503 8 169 0.0 0.0 0.00 0.00 0.00 86 1013.9
20260508083029 8 169 0.0 0.0 0.00 0.00 0.00 85 1014.1
20260508082030 8 169 0.0 0.0 0.00 0.00 0.00 85 1014.2
20260508081028 9 169 0.0 0.0 0.00 0.00 0.00 85 1014.1
20260508080030 9 169 0.0 0.0 0.00 0.00 0.00 83 1014.4
20260508075030 9 169 0.0 0.0 0.00 0.00 0.00 83 1014.5
20260508074030 9 169 0.0 0.0 0.00 0.00 0.00 83 1014.4
20260508073028 9 169 0.0 0.0 0.00 0.00 0.00 84 1014.5
20260508072031 9 169 0.0 0.0 0.00 0.00 0.00 84 1014.6
20260508071457 10 169 0.0 0.0 0.00 0.00 0.00 83 1014.7
20260508070022 10 169 0.0 0.0 0.00 0.00 0.00 81 1014.8
20260508064022 10 169 0.0 0.0 0.00 0.00 0.00 81 1015.1
20260508063022 10 169 0.0 0.0 0.00 0.00 0.00 82 1015.1
20260508062023 10 169 0.0 0.0 0.00 0.00 0.00 82 1015.3
20260508061455 10 169 0.0 0.0 0.00 0.00 0.00 84 1015.4
20260508060023 9 169 0.0 0.0 0.00 0.00 0.00 85 1015.4
20260508055016 10 169 0.0 0.0 0.00 0.00 0.00 84 1015.4
20260508054457 10 169 0.0 0.0 0.00 0.00 0.00 83 1015.5
20260508053017 10 169 0.0 0.0 0.00 0.00 0.00 82 1015.3
20260508052017 10 169 0.0 0.0 0.00 0.00 0.00 81 1015.5
20260508051013 10 169 0.0 0.0 0.00 0.00 0.00 82 1015.5
20260508050015 10 169 0.0 0.0 0.00 0.00 0.00 84 1015.4
20260508045500 10 169 0.0 0.0 0.00 0.00 0.00 84 1015.4
20260508044009 10 169 0.0 0.0 0.00 0.00 0.00 83 1015.5
20260508043010 10 169 0.0 1.6 0.00 0.00 0.00 83 1015.7
20260508042009 10 169 0.0 1.6 0.00 0.00 0.00 83 1015.7
20260508041009 10 184 0.0 0.0 0.00 0.00 0.00 81 1015.9
20260508040009 11 184 0.0 4.8 0.00 0.00 0.00 79 1015.9
20260508035007 11 227 0.0 3.2 0.00 0.00 0.00 79 1016.0
20260508034013 11 180 0.0 3.2 0.00 0.00 0.00 78 1016.0
20260508033008 12 200 0.0 3.2 0.00 0.00 0.00 74 1015.9
20260508032009 11 147 0.0 0.0 0.00 0.00 0.00 75 1015.9
20260508031007 11 147 0.0 1.6 0.00 0.00 0.00 75 1015.7
20260508030002 11 266 0.0 0.0 0.00 0.00 0.00 76 1015.7
20260508025002 11 266 0.0 3.2 0.00 0.00 0.00 76 1015.6
20260508024004 12 238 0.0 4.8 0.00 0.00 0.00 77 1015.5
20260508023003 12 5 0.0 0.0 0.00 0.00 0.00 74 1015.4
20260508022003 12 5 1.6 3.2 0.00 0.00 0.00 70 1015.3
20260508021003 13 41 0.0 3.2 0.00 0.00 0.00 70 1015.3
20260508020437 13 103 0.0 0.0 0.00 0.00 0.00 65 1015.3
20260508015001 13 103 0.0 1.6 0.00 0.00 0.00 63 1015.1
20260508014002 15 99 0.0 0.0 0.00 0.00 0.00 63 1014.9
20260508013002 15 99 0.0 1.6 0.00 0.00 0.00 59 1014.8
20260508012002 15 120 0.0 1.6 0.00 0.00 0.00 58 1014.8
20260508011003 16 119 0.0 1.6 0.00 0.00 0.00 56 1014.6
20260508010001 17 260 0.0 1.6 0.00 0.00 0.00 53 1014.6
20260508005003 18 225 0.0 1.6 0.00 0.00 0.00 50 1014.6
20260508004003 18 225 1.6 3.2 0.00 0.00 0.00 51 1014.6
20260508003003 18 197 3.2 6.4 0.00 0.00 0.00 47 1014.8
20260508002002 18 186 3.2 8.0 0.00 0.00 0.00 49 1014.8
20260508001004 18 187 1.6 4.8 0.00 0.00 0.00 48 1014.8
20260508000438 18 193 3.2 8.0 0.00 0.00 0.00 49 1014.8
20260507235001 18 194 6.4 9.7 0.00 0.00 0.00 50 1014.7
20260507234001 18 219 4.8 16.1 0.00 0.00 0.00 47 1014.8
20260507233002 18 230 3.2 8.0 0.00 0.00 0.00 48 1014.6
20260507232001 18 194 8.0 14.5 0.00 0.00 0.00 48 1014.7
20260507231439 18 198 6.4 12.9 0.00 0.00 0.00 48 1014.9
20260507230442 18 216 4.8 12.9 0.00 0.00 0.00 47 1014.9
20260507225001 18 294 4.8 11.3 0.00 0.00 0.00 48 1015.0
20260507224002 18 170 6.4 16.1 0.00 0.00 0.00 47 1015.0
20260507223001 19 193 6.4 11.3 0.00 0.00 0.00 46 1015.2
20260507222001 18 184 3.2 14.5 0.00 0.00 0.00 47 1015.2
20260507221001 19 207 8.0 16.1 0.00 0.00 0.00 45 1015.4
20260507220001 19 223 6.4 17.7 0.00 0.00 0.00 46 1015.3
20260507214959 18 275 3.2 11.3 0.00 0.00 0.00 45 1015.5
20260507214000 19 211 8.0 19.3 0.00 0.00 0.00 44 1015.4
20260507213443 20 197 9.7 20.9 0.00 0.00 0.00 46 1015.4
20260507212000 19 167 9.7 16.1 0.00 0.00 0.00 47 1015.4
20260507210953 19 179 6.4 14.5 0.00 0.00 0.00 46 1015.7
20260507205951 18 192 6.4 16.1 0.00 0.00 0.00 45 1015.7
20260507204953 19 193 6.4 14.5 0.00 0.00 0.00 45 1016.0
20260507203952 18 209 6.4 19.3 0.00 0.00 0.00 44 1016.1
20260507202952 19 151 8.0 16.1 0.00 0.00 0.00 42 1016.3
20260507201951 19 252 6.4 14.5 0.00 0.00 0.00 42 1016.4
20260507201436 19 328 6.4 16.1 0.00 0.00 0.00 48 1016.3
20260507195954 18 226 11.3 20.9 0.00 0.00 0.00 44 1016.4
20260507194953 19 179 8.0 25.7 0.00 0.00 0.00 49 1016.7
20260507193947 18 236 4.8 14.5 0.00 0.00 0.00 45 1017.0
20260507192947 18 168 6.4 16.1 0.00 0.00 0.00 44 1017.0
20260507191946 18 155 6.4 16.1 0.00 0.00 0.00 46 1017.2
20260507190945 18 209 6.4 14.5 0.00 0.00 0.00 49 1017.2
20260507190440 18 277 8.0 17.7 0.00 0.00 0.00 45 1017.2
20260507184945 18 225 9.7 17.7 0.00 0.00 0.00 50 1017.3
20260507183947 18 286 6.4 16.1 0.00 0.00 0.00 46 1017.4
20260507182945 18 314 6.4 17.7 0.00 0.00 0.00 44 1017.4
20260507181947 18 189 8.0 14.5 0.00 0.00 0.00 48 1017.5
20260507180945 18 315 6.4 17.7 0.00 0.00 0.00 43 1017.7
20260507175946 17 189 3.2 16.1 0.00 0.00 0.00 46 1018.0
20260507174945 17 317 4.8 12.9 0.00 0.00 0.00 42 1018.2
20260507173947 17 334 6.4 12.9 0.00 0.00 0.00 43 1018.4
20260507172946 17 273 4.8 11.3 0.00 0.00 0.00 47 1018.6
20260507171946 17 181 4.8 14.5 0.00 0.00 0.00 47 1018.4
20260507170946 17 307 6.4 16.1 0.00 0.00 0.00 46 1018.6
20260507165945 17 312 4.8 12.9 0.00 0.00 0.00 50 1018.7
20260507164942 16 331 4.8 14.5 0.00 0.00 0.00 45 1019.0
20260507163945 16 285 6.4 16.1 0.00 0.00 0.00 48 1019.1
20260507162941 16 339 8.0 16.1 0.00 0.00 0.00 51 1019.1
20260507161937 16 12 6.4 16.1 0.00 0.00 0.00 46 1019.2
20260507160939 15 244 4.8 11.3 0.00 0.00 0.00 52 1019.2
20260507160414 15 182 8.0 17.7 0.00 0.00 0.00 51 1019.4
20260507154931 15 150 3.2 9.7 0.00 0.00 0.00 51 1019.4
20260507153932 15 228 4.8 12.9 0.00 0.00 0.00 50 1019.4
20260507152931 15 355 4.8 14.5 0.00 0.00 0.00 51 1019.4
20260507151933 14 175 4.8 11.3 0.00 0.00 0.00 54 1019.4
20260507150935 13 164 3.2 8.0 0.00 0.00 0.00 59 1019.6
20260507145930 13 147 3.2 9.7 0.00 0.00 0.00 57 1019.5
20260507145413 13 175 3.2 9.7 0.00 0.00 0.00 62 1019.5
20260507143931 12 169 3.2 9.7 0.00 0.00 0.00 65 1019.4
20260507142931 12 203 3.2 8.0 0.00 0.00 0.00 69 1019.4
20260507141929 11 141 0.0 3.2 0.00 0.00 0.00 72 1019.3
20260507141408 11 146 1.6 4.8 0.00 0.00 0.00 76 1019.3
20260507135928 10 152 1.6 4.8 0.00 0.00 0.00 84 1019.3
20260507134924 9 170 1.6 3.2 0.00 0.00 0.00 87 1019.5
20260507133924 8 143 0.0 0.0 0.00 0.00 0.00 90 1019.5
20260507132924 8 133 0.0 1.6 0.00 0.00 0.00 92 1019.6
20260507131924 7 135 0.0 1.6 0.00 0.00 0.00 92 1019.6
20260507130922 7 135 0.0 3.2 0.00 0.00 0.00 93 1019.5
20260507130407 7 73 0.0 3.2 0.00 0.00 0.00 94 1019.4
20260507124921 6 103 0.0 1.6 0.00 0.00 0.00 94 1019.4
20260507123920 6 96 0.0 1.6 0.00 0.00 0.00 94 1019.2
20260507123412 6 350 0.0 1.6 0.00 0.00 0.00 94 1019.0
20260507121921 5 350 0.0 1.6 0.00 0.00 0.00 94 1019.1
20260507120917 5 350 0.0 1.6 0.00 0.00 0.00 95 1019.1
20260507115917 4 320 0.0 0.0 0.00 0.00 0.00 95 1019.1
20260507115356 3 320 0.0 0.0 0.00 0.00 0.00 94 1019.0
20260507113917 3 320 0.0 0.0 0.00 0.00 0.00 93 1018.9
20260507113400 3 320 0.0 0.0 0.00 0.00 0.00 93 1019.1
20260507111916 4 320 0.0 0.0 0.00 0.00 0.00 94 1019.1
20260507110918 4 320 0.0 1.6 0.00 0.00 0.00 94 1018.8
20260507110358 4 320 0.0 1.6 0.00 0.00 0.00 94 1018.6
20260507104917 3 320 0.0 0.0 0.00 0.00 0.00 94 1018.6
20260507103919 3 320 0.0 0.0 0.00 0.00 0.00 94 1018.7
20260507102912 3 320 0.0 0.0 0.00 0.00 0.00 93 1018.6
20260507101911 3 320 0.0 0.0 0.00 0.00 0.00 93 1018.8
20260507100910 3 320 0.0 0.0 0.00 0.00 0.00 93 1018.8
20260507095911 3 320 0.0 1.6 0.00 0.00 0.00 93 1018.9
20260507094910 3 298 0.0 0.0 0.00 0.00 0.00 93 1018.8
20260507093912 4 298 0.0 0.0 0.00 0.00 0.00 93 1018.9
20260507091913 4 298 0.0 0.0 0.00 0.00 0.00 93 1018.7
20260507090911 4 298 0.0 1.6 0.00 0.00 0.00 92 1018.7
20260507085906 4 298 0.0 1.6 0.00 0.00 0.00 92 1018.7